This is the latest recevied weather packets stored in our database for station/object N9WHM. If no packets are shown the sender has not sent any weather packets the latest 10 day(s).
| Time | Temp. | Humidity | Pressure | Rain* | Wind** | Luminosity | Snow |
|---|---|---|---|---|---|---|---|
| 1777791950 | 14.44° C | 40% | 1009.3 hPa | 0 mm | - | 0 W/m² | - |
| 1777791649 | 13.33° C | 42% | 1009.6 hPa | 0 mm | - | 0 W/m² | - |
| 1777791345 | 12.22° C | 45% | 1009.6 hPa | 0 mm | - | 0 W/m² | - |
| 1777791043 | 12.22° C | 45% | 1009.8 hPa | 0 mm | - | 0 W/m² | - |
| 1777790740 | 12.22° C | 45% | 1009.9 hPa | 0 mm | - | 0 W/m² | - |
| 1777790437 | 12.22° C | 44% | 1009.8 hPa | 0 mm | - | 0 W/m² | - |
| 1777790134 | 12.22° C | 45% | 1010 hPa | 0 mm | - | 0 W/m² | - |
| 1777789832 | 12.22° C | 45% | 1010 hPa | 0 mm | - | 0 W/m² | - |
| 1777789530 | 12.22° C | 45% | 1009.9 hPa | 0 mm | - | 0 W/m² | - |
| 1777789229 | 12.22° C | 45% | 1010.1 hPa | 0 mm | - | 0 W/m² | - |
| 1777788926 | 12.22° C | 44% | 1010.2 hPa | 0 mm | - | 0 W/m² | - |
| 1777788622 | 12.78° C | 43% | 1010.2 hPa | 0 mm | - | 0 W/m² | - |
| 1777788322 | 12.78° C | 43% | 1009.8 hPa | 0 mm | - | 0 W/m² | - |
| 1777788018 | 12.78° C | 43% | 1010.1 hPa | 0 mm | - | 0 W/m² | - |
| 1777787713 | 12.78° C | 43% | 1010.4 hPa | 0 mm | - | 0 W/m² | - |
| 1777787409 | 12.78° C | 44% | 1010.2 hPa | 0 mm | - | 0 W/m² | - |
| 1777787105 | 12.78° C | 44% | 1010.6 hPa | 0 mm | - | 0 W/m² | - |
| 1777786803 | 12.22° C | 45% | 1010.3 hPa | 0 mm | - | 0 W/m² | - |
| 1777786501 | 11.67° C | 46% | 1010.6 hPa | 0 mm | - | 0 W/m² | - |
| 1777786197 | 11.67° C | 47% | 1010.7 hPa | 0 mm | - | 0 W/m² | - |
| 1777785895 | 11.11° C | 47% | 1010.4 hPa | 0 mm | - | 0 W/m² | - |
| 1777785591 | 11.67° C | 47% | 1010.5 hPa | 0 mm | - | 0 W/m² | - |
| 1777785286 | 11.11° C | 47% | 1010.5 hPa | 0 mm | - | 0 W/m² | - |
| 1777784984 | 11.67° C | 47% | 1010.6 hPa | 0 mm | - | 0 W/m² | - |
| 1777784680 | 11.67° C | 47% | 1010.6 hPa | 0 mm | - | 0 W/m² | - |
* Rain latest hour (hover to see other rain measurements)
** Current wind speed in m/s (hover to see current wind gust speed)